| time (UTC) | temp C | wind direction | speed KPH | gust KPH | rain 1hr cm | rain 24hr cm | rain mn cm | humidity % | barometer mb |
| 20260502195848 | 30 | 20 | 3.2 | 3.2 | 0.00 | 0.00 | 0.00 | 19 | 1012.8 |
| 20260502195344 | 30 | 110 | 4.8 | 4.8 | 0.00 | 0.00 | 0.00 | 18 | 1012.8 |
| 20260502194841 | 30 | 136 | 3.2 | 3.2 | 0.00 | 0.00 | 0.00 | 20 | 1012.8 |
| 20260502194338 | 30 | 92 | 3.2 | 4.8 | 0.00 | 0.00 | 0.00 | 19 | 1013.0 |
| 20260502193834 | 30 | 136 | 0.0 | 1.6 | 0.00 | 0.00 | 0.00 | 19 | 1013.0 |
| 20260502193331 | 29 | 82 | 3.2 | 3.2 | 0.00 | 0.00 | 0.00 | 22 | 1012.9 |
| 20260502192827 | 30 | 192 | 6.4 | 8.0 | 0.00 | 0.00 | 0.00 | 20 | 1012.8 |
| 20260502192324 | 30 | 278 | 4.8 | 4.8 | 0.00 | 0.00 | 0.00 | 20 | 1013.0 |
| 20260502191821 | 30 | 40 | 6.4 | 8.0 | 0.00 | 0.00 | 0.00 | 21 | 1012.9 |
| 20260502191319 | 30 | 91 | 1.6 | 1.6 | 0.00 | 0.00 | 0.00 | 21 | 1013.3 |
| 20260502190816 | 30 | 108 | 4.8 | 4.8 | 0.00 | 0.00 | 0.00 | 22 | 1013.2 |
| 20260502190313 | 30 | 81 | 3.2 | 3.2 | 0.00 | 0.00 | 0.00 | 20 | 1013.5 |
| 20260502185809 | 30 | 90 | 3.2 | 8.0 | 0.00 | 0.00 | 0.00 | 21 | 1013.2 |
| 20260502185305 | 30 | 110 | 3.2 | 4.8 | 0.00 | 0.00 | 0.00 | 21 | 1013.4 |
| 20260502184802 | 29 | 87 | 1.6 | 3.2 | 0.00 | 0.00 | 0.00 | 22 | 1013.5 |
| 20260502184257 | 29 | 118 | 3.2 | 3.2 | 0.00 | 0.00 | 0.00 | 23 | 1013.8 |
| 20260502183754 | 29 | 73 | 4.8 | 8.0 | 0.00 | 0.00 | 0.00 | 23 | 1014.0 |
| 20260502183250 | 28 | 186 | 6.4 | 9.7 | 0.00 | 0.00 | 0.00 | 23 | 1013.9 |
| 20260502182745 | 28 | 29 | 3.2 | 4.8 | 0.00 | 0.00 | 0.00 | 24 | 1014.0 |
| 20260502182241 | 28 | 113 | 6.4 | 8.0 | 0.00 | 0.00 | 0.00 | 24 | 1013.8 |
| 20260502181738 | 28 | 107 | 3.2 | 4.8 | 0.00 | 0.00 | 0.00 | 24 | 1014.2 |
| 20260502181237 | 28 | 99 | 1.6 | 3.2 | 0.00 | 0.00 | 0.00 | 24 | 1014.4 |
| 20260502180734 | 28 | 57 | 3.2 | 3.2 | 0.00 | 0.00 | 0.00 | 24 | 1014.2 |
| 20260502180232 | 28 | 73 | 4.8 | 8.0 | 0.00 | 0.00 | 0.00 | 25 | 1014.4 |
| 20260502170156 | 26 | 116 | 8.0 | 9.7 | 0.00 | 0.00 | 0.00 | 29 | 1014.9 |
| 20260502164142 | 26 | 83 | 4.8 | 4.8 | 0.00 | 0.00 | 0.00 | 30 | 1014.5 |
| 20260502163638 | 26 | 67 | 12.9 | 14.5 | 0.00 | 0.00 | 0.00 | 30 | 1014.6 |
| 20260502163135 | 25 | 72 | 9.7 | 14.5 | 0.00 | 0.00 | 0.00 | 31 | 1014.5 |
| 20260502162632 | 25 | 88 | 11.3 | 16.1 | 0.00 | 0.00 | 0.00 | 31 | 1014.6 |
| 20260502162129 | 25 | 103 | 6.4 | 9.7 | 0.00 | 0.00 | 0.00 | 31 | 1014.8 |
| 20260502161626 | 25 | 89 | 11.3 | 14.5 | 0.00 | 0.00 | 0.00 | 32 | 1014.7 |
| 20260502161123 | 25 | 43 | 8.0 | 9.7 | 0.00 | 0.00 | 0.00 | 32 | 1014.6 |
| 20260502160621 | 25 | 67 | 4.8 | 4.8 | 0.00 | 0.00 | 0.00 | 33 | 1014.8 |
| 20260502160120 | 25 | 93 | 9.7 | 12.9 | 0.00 | 0.00 | 0.00 | 33 | 1014.5 |
| 20260502152034 | 23 | 171 | 9.7 | 17.7 | 0.00 | 0.00 | 0.00 | 34 | 1014.3 |
| 20260502151531 | 23 | 20 | 9.7 | 12.9 | 0.00 | 0.00 | 0.00 | 35 | 1014.4 |
| 20260502151028 | 23 | 76 | 4.8 | 4.8 | 0.00 | 0.00 | 0.00 | 36 | 1014.5 |
| 20260502150526 | 23 | 130 | 12.9 | 17.7 | 0.00 | 0.00 | 0.00 | 35 | 1014.5 |
| 20260502130410 | 20 | 114 | 3.2 | 11.3 | 0.00 | 0.00 | 0.00 | 40 | 1012.7 |
| 20260502123353 | 19 | 101 | 6.4 | 11.3 | 0.00 | 0.00 | 0.00 | 41 | 1012.5 |
| 20260502122850 | 19 | 87 | 4.8 | 8.0 | 0.00 | 0.00 | 0.00 | 41 | 1012.1 |
| 20260502122345 | 19 | 138 | 4.8 | 9.7 | 0.00 | 0.00 | 0.00 | 41 | 1012.2 |
| 20260502121844 | 19 | 137 | 4.8 | 11.3 | 0.00 | 0.00 | 0.00 | 41 | 1012.1 |
| 20260502121341 | 18 | 55 | 4.8 | 8.0 | 0.00 | 0.00 | 0.00 | 41 | 1012.1 |
| 20260502120839 | 18 | 94 | 3.2 | 3.2 | 0.00 | 0.00 | 0.00 | 41 | 1012.2 |
| 20260502120334 | 17 | 121 | 4.8 | 4.8 | 0.00 | 0.00 | 0.00 | 42 | 1012.2 |
| 20260502115832 | 16 | 140 | 4.8 | 4.8 | 0.00 | 0.00 | 0.00 | 42 | 1012.1 |
| 20260502115329 | 14 | 93 | 3.2 | 4.8 | 0.00 | 0.00 | 0.00 | 42 | 1012.2 |
| 20260502114826 | 13 | 57 | 1.6 | 1.6 | 0.00 | 0.00 | 0.00 | 43 | 1012.4 |
| 20260502114323 | 13 | 53 | 0.0 | 0.0 | 0.00 | 0.00 | 0.00 | 43 | 1012.2 |
| 20260502113819 | 13 | 45 | 0.0 | 0.0 | 0.00 | 0.00 | 0.00 | 43 | 1012.1 |
| 20260502113317 | 13 | 34 | 0.0 | 0.0 | 0.00 | 0.00 | 0.00 | 43 | 1012.4 |
| 20260502112816 | 13 | 33 | 0.0 | 0.0 | 0.00 | 0.00 | 0.00 | 43 | 1012.5 |
| 20260502112312 | 13 | 3 | 0.0 | 0.0 | 0.00 | 0.00 | 0.00 | 44 | 1012.5 |
| 20260502111810 | 14 | 3 | 0.0 | 0.0 | 0.00 | 0.00 | 0.00 | 43 | 1012.4 |
| 20260502111307 | 14 | 3 | 0.0 | 0.0 | 0.00 | 0.00 | 0.00 | 42 | 1012.5 |
| 20260502110804 | 15 | 3 | 0.0 | 1.6 | 0.00 | 0.00 | 0.00 | 41 | 1012.5 |
| 20260502110302 | 15 | 173 | 1.6 | 1.6 | 0.00 | 0.00 | 0.00 | 38 | 1012.5 |
| 20260502105800 | 15 | 181 | 3.2 | 3.2 | 0.00 | 0.00 | 0.00 | 39 | 1012.0 |
| 20260502105256 | 15 | 154 | 1.6 | 1.6 | 0.00 | 0.00 | 0.00 | 39 | 1012.6 |
| 20260502104754 | 15 | 118 | 1.6 | 1.6 | 0.00 | 0.00 | 0.00 | 41 | 1012.6 |
| 20260502104251 | 15 | 91 | 0.0 | 0.0 | 0.00 | 0.00 | 0.00 | 40 | 1012.6 |
| 20260502103749 | 15 | 90 | 0.0 | 0.0 | 0.00 | 0.00 | 0.00 | 41 | 1012.2 |
| 20260502103246 | 15 | 90 | 0.0 | 0.0 | 0.00 | 0.00 | 0.00 | 41 | 1012.4 |
| 20260502102743 | 15 | 90 | 0.0 | 0.0 | 0.00 | 0.00 | 0.00 | 40 | 1012.0 |
| 20260502102239 | 15 | 90 | 0.0 | 0.0 | 0.00 | 0.00 | 0.00 | 40 | 1012.1 |
| 20260502101738 | 15 | 90 | 0.0 | 0.0 | 0.00 | 0.00 | 0.00 | 40 | 1012.0 |
| 20260502101235 | 15 | 91 | 0.0 | 0.0 | 0.00 | 0.00 | 0.00 | 39 | 1011.9 |
| 20260502100733 | 15 | 91 | 0.0 | 0.0 | 0.00 | 0.00 | 0.00 | 39 | 1012.0 |
| 20260502100232 | 15 | 90 | 0.0 | 0.0 | 0.00 | 0.00 | 0.00 | 39 | 1011.8 |
| 20260502091206 | 16 | 89 | 0.0 | 0.0 | 0.00 | 0.00 | 0.00 | 36 | 1011.8 |
| 20260502090703 | 16 | 89 | 0.0 | 0.0 | 0.00 | 0.00 | 0.00 | 35 | 1011.9 |
| 20260502090200 | 16 | 88 | 0.0 | 0.0 | 0.00 | 0.00 | 0.00 | 36 | 1011.8 |
| 20260502071055 | 20 | 89 | 0.0 | 0.0 | 0.00 | 0.00 | 0.00 | 31 | 1011.9 |
| 20260502070553 | 20 | 112 | 0.0 | 0.0 | 0.00 | 0.00 | 0.00 | 30 | 1012.2 |
| 20260502070051 | 20 | 114 | 1.6 | 1.6 | 0.00 | 0.00 | 0.00 | 30 | 1012.0 |
| 20260502065549 | 19 | 62 | 3.2 | 3.2 | 0.00 | 0.00 | 0.00 | 30 | 1011.9 |
| 20260502065047 | 19 | 73 | 0.0 | 1.6 | 0.00 | 0.00 | 0.00 | 31 | 1012.0 |
| 20260502064545 | 18 | 69 | 1.6 | 1.6 | 0.00 | 0.00 | 0.00 | 32 | 1011.9 |
| 20260502064042 | 19 | 32 | 1.6 | 1.6 | 0.00 | 0.00 | 0.00 | 31 | 1011.9 |
| 20260502063540 | 19 | 344 | 0.0 | 0.0 | 0.00 | 0.00 | 0.00 | 31 | 1011.9 |
| 20260502063037 | 19 | 344 | 0.0 | 0.0 | 0.00 | 0.00 | 0.00 | 30 | 1011.7 |
| 20260502062534 | 19 | 344 | 0.0 | 0.0 | 0.00 | 0.00 | 0.00 | 31 | 1011.7 |
| 20260502062032 | 19 | 344 | 0.0 | 0.0 | 0.00 | 0.00 | 0.00 | 30 | 1011.6 |
| 20260502061530 | 19 | 344 | 0.0 | 0.0 | 0.00 | 0.00 | 0.00 | 30 | 1011.7 |
| 20260502061027 | 20 | 344 | 0.0 | 0.0 | 0.00 | 0.00 | 0.00 | 30 | 1011.9 |
| 20260502060522 | 20 | 344 | 0.0 | 0.0 | 0.00 | 0.00 | 0.00 | 29 | 1011.5 |
| 20260502060019 | 20 | 344 | 0.0 | 0.0 | 0.00 | 0.00 | 0.00 | 30 | 1011.5 |
| 20260502055516 | 20 | 344 | 0.0 | 0.0 | 0.00 | 0.00 | 0.00 | 30 | 1011.7 |
| 20260502055015 | 20 | 344 | 0.0 | 0.0 | 0.00 | 0.00 | 0.00 | 30 | 1011.3 |
| 20260502054513 | 20 | 344 | 0.0 | 0.0 | 0.00 | 0.00 | 0.00 | 30 | 1011.3 |
| 20260502054010 | 20 | 344 | 0.0 | 0.0 | 0.00 | 0.00 | 0.00 | 30 | 1011.3 |
| 20260502053507 | 20 | 344 | 0.0 | 0.0 | 0.00 | 0.00 | 0.00 | 30 | 1011.2 |
| 20260502053005 | 20 | 344 | 0.0 | 0.0 | 0.00 | 0.00 | 0.00 | 29 | 1011.3 |
| 20260502052503 | 20 | 344 | 0.0 | 0.0 | 0.00 | 0.00 | 0.00 | 30 | 1011.4 |
| 20260502052001 | 20 | 344 | 0.0 | 0.0 | 0.00 | 0.00 | 0.00 | 29 | 1011.4 |
| 20260502051459 | 20 | 344 | 0.0 | 0.0 | 0.00 | 0.00 | 0.00 | 29 | 1010.9 |
| 20260502050955 | 20 | 344 | 0.0 | 0.0 | 0.00 | 0.00 | 0.00 | 29 | 1011.4 |
| 20260502050452 | 20 | 344 | 0.0 | 0.0 | 0.00 | 0.00 | 0.00 | 29 | 1011.2 |
| 20260502045949 | 21 | 346 | 0.0 | 0.0 | 0.00 | 0.00 | 0.00 | 29 | 1011.2 |
| 20260502045446 | 21 | 346 | 0.0 | 0.0 | 0.00 | 0.00 | 0.00 | 28 | 1011.1 |
| 20260502044943 | 21 | 346 | 0.0 | 0.0 | 0.00 | 0.00 | 0.00 | 28 | 1011.2 |
| 20260502044438 | 20 | 346 | 0.0 | 0.0 | 0.00 | 0.00 | 0.00 | 29 | 1011.0 |
| 20260502043936 | 20 | 346 | 0.0 | 0.0 | 0.00 | 0.00 | 0.00 | 29 | 1011.0 |
| 20260502043434 | 20 | 346 | 0.0 | 0.0 | 0.00 | 0.00 | 0.00 | 29 | 1010.9 |
| 20260502042933 | 20 | 346 | 0.0 | 0.0 | 0.00 | 0.00 | 0.00 | 30 | 1011.1 |
| 20260502042430 | 20 | 346 | 0.0 | 0.0 | 0.00 | 0.00 | 0.00 | 29 | 1010.9 |
| 20260502041927 | 20 | 346 | 0.0 | 0.0 | 0.00 | 0.00 | 0.00 | 29 | 1010.9 |
| 20260502041425 | 21 | 346 | 0.0 | 0.0 | 0.00 | 0.00 | 0.00 | 28 | 1010.9 |
| 20260502040922 | 21 | 346 | 0.0 | 0.0 | 0.00 | 0.00 | 0.00 | 28 | 1010.6 |
| 20260502040418 | 21 | 346 | 0.0 | 0.0 | 0.00 | 0.00 | 0.00 | 27 | 1010.6 |
| 20260502035915 | 22 | 346 | 0.0 | 0.0 | 0.00 | 0.00 | 0.00 | 27 | 1010.6 |
| 20260502035411 | 22 | 346 | 0.0 | 0.0 | 0.00 | 0.00 | 0.00 | 26 | 1010.4 |
| 20260502034909 | 22 | 346 | 0.0 | 0.0 | 0.00 | 0.00 | 0.00 | 26 | 1010.4 |
| 20260502034408 | 22 | 346 | 0.0 | 0.0 | 0.00 | 0.00 | 0.00 | 25 | 1010.4 |
| 20260502033905 | 22 | 346 | 0.0 | 0.0 | 0.00 | 0.00 | 0.00 | 26 | 1010.3 |
| 20260502033403 | 22 | 346 | 0.0 | 0.0 | 0.00 | 0.00 | 0.00 | 25 | 1010.1 |
| 20260502032859 | 22 | 346 | 0.0 | 0.0 | 0.00 | 0.00 | 0.00 | 25 | 1009.9 |
| 20260502032355 | 22 | 346 | 0.0 | 0.0 | 0.00 | 0.00 | 0.00 | 25 | 1010.1 |
| 20260502031853 | 22 | 346 | 0.0 | 0.0 | 0.00 | 0.00 | 0.00 | 25 | 1009.9 |
| 20260502031351 | 22 | 346 | 0.0 | 0.0 | 0.00 | 0.00 | 0.00 | 24 | 1010.0 |
| 20260502030849 | 23 | 346 | 0.0 | 0.0 | 0.00 | 0.00 | 0.00 | 24 | 1010.1 |
| 20260502030347 | 23 | 346 | 0.0 | 0.0 | 0.00 | 0.00 | 0.00 | 24 | 1009.8 |
| 20260502025844 | 23 | 346 | 0.0 | 0.0 | 0.00 | 0.00 | 0.00 | 24 | 1009.7 |
| 20260502025342 | 23 | 346 | 0.0 | 0.0 | 0.00 | 0.00 | 0.00 | 23 | 1009.7 |
| 20260502024839 | 23 | 346 | 0.0 | 0.0 | 0.00 | 0.00 | 0.00 | 23 | 1009.6 |
| 20260502024337 | 24 | 346 | 0.0 | 0.0 | 0.00 | 0.00 | 0.00 | 22 | 1009.6 |
| 20260502023835 | 24 | 348 | 0.0 | 0.0 | 0.00 | 0.00 | 0.00 | 22 | 1009.3 |
| 20260502023332 | 25 | 348 | 0.0 | 0.0 | 0.00 | 0.00 | 0.00 | 22 | 1009.6 |
| 20260502022830 | 25 | 348 | 0.0 | 0.0 | 0.00 | 0.00 | 0.00 | 21 | 1009.6 |
| 20260502022326 | 25 | 340 | 0.0 | 0.0 | 0.00 | 0.00 | 0.00 | 21 | 1009.3 |
| 20260502021823 | 25 | 340 | 0.0 | 0.0 | 0.00 | 0.00 | 0.00 | 20 | 1009.3 |
| 20260502021320 | 26 | 345 | 0.0 | 0.0 | 0.00 | 0.00 | 0.00 | 20 | 1009.3 |
| 20260502020817 | 26 | 354 | 0.0 | 0.0 | 0.00 | 0.00 | 0.00 | 19 | 1009.2 |
| 20260502020315 | 26 | 18 | 3.2 | 3.2 | 0.00 | 0.00 | 0.00 | 19 | 1009.0 |
| 20260502015812 | 26 | 327 | 0.0 | 0.0 | 0.00 | 0.00 | 0.00 | 19 | 1009.2 |
| 20260502015309 | 27 | 355 | 1.6 | 0.0 | 0.00 | 0.00 | 0.00 | 18 | 1009.1 |
| 20260502014806 | 27 | 296 | 3.2 | 3.2 | 0.00 | 0.00 | 0.00 | 18 | 1009.1 |
| 20260502014303 | 27 | 303 | 1.6 | 1.6 | 0.00 | 0.00 | 0.00 | 18 | 1009.1 |
| 20260502013759 | 28 | 279 | 1.6 | 1.6 | 0.00 | 0.00 | 0.00 | 17 | 1008.9 |
| 20260502013255 | 28 | 291 | 6.4 | 8.0 | 0.00 | 0.00 | 0.00 | 16 | 1009.0 |
| 20260502012751 | 28 | 296 | 4.8 | 8.0 | 0.00 | 0.00 | 0.00 | 17 | 1008.9 |
| 20260502012249 | 28 | 288 | 4.8 | 8.0 | 0.00 | 0.00 | 0.00 | 17 | 1008.7 |
| 20260502011746 | 28 | 278 | 3.2 | 3.2 | 0.00 | 0.00 | 0.00 | 17 | 1009.0 |
| 20260502011242 | 28 | 320 | 3.2 | 3.2 | 0.00 | 0.00 | 0.00 | 17 | 1008.8 |
| 20260502010740 | 28 | 22 | 0.0 | 0.0 | 0.00 | 0.00 | 0.00 | 17 | 1008.8 |
| 20260502010236 | 29 | 305 | 3.2 | 4.8 | 0.00 | 0.00 | 0.00 | 17 | 1008.8 |
| 20260502005733 | 29 | 358 | 4.8 | 8.0 | 0.00 | 0.00 | 0.00 | 16 | 1008.6 |
| 20260502005231 | 29 | 294 | 3.2 | 3.2 | 0.00 | 0.00 | 0.00 | 16 | 1008.5 |
| 20260502004728 | 29 | 12 | 3.2 | 8.0 | 0.00 | 0.00 | 0.00 | 16 | 1008.7 |
| 20260502004224 | 29 | 276 | 3.2 | 4.8 | 0.00 | 0.00 | 0.00 | 16 | 1008.7 |
| 20260502003722 | 29 | 301 | 3.2 | 3.2 | 0.00 | 0.00 | 0.00 | 16 | 1008.9 |
| 20260502003219 | 30 | 310 | 8.0 | 9.7 | 0.00 | 0.00 | 0.00 | 16 | 1008.6 |
| 20260502002714 | 30 | 4 | 1.6 | 3.2 | 0.00 | 0.00 | 0.00 | 17 | 1008.7 |
| 20260502002213 | 30 | 297 | 3.2 | 4.8 | 0.00 | 0.00 | 0.00 | 17 | 1008.7 |
| 20260502001709 | 30 | 314 | 1.6 | 1.6 | 0.00 | 0.00 | 0.00 | 17 | 1008.8 |
| 20260502001208 | 30 | 354 | 6.4 | 8.0 | 0.00 | 0.00 | 0.00 | 17 | 1008.7 |
| 20260502000704 | 30 | 299 | 8.0 | 12.9 | 0.00 | 0.00 | 0.00 | 17 | 1008.7 |
| 20260502000203 | 30 | 352 | 4.8 | 4.8 | 0.00 | 0.00 | 0.00 | 17 | 1008.7 |
| 20260501235652 | 30 | 309 | 3.2 | 4.8 | 0.00 | 0.00 | 0.00 | 17 | 1008.6 |
| 20260501235148 | 29 | 24 | 4.8 | 8.0 | 0.00 | 0.00 | 0.00 | 18 | 1008.8 |
| 20260501234644 | 30 | 355 | 8.0 | 14.5 | 0.00 | 0.00 | 0.00 | 18 | 1008.5 |
| 20260501234142 | 30 | 5 | 4.8 | 8.0 | 0.00 | 0.00 | 0.00 | 17 | 1008.8 |
| 20260501233639 | 30 | 16 | 6.4 | 12.9 | 0.00 | 0.00 | 0.00 | 17 | 1008.7 |
| 20260501233136 | 30 | 12 | 3.2 | 3.2 | 0.00 | 0.00 | 0.00 | 17 | 1008.6 |
| 20260501232632 | 30 | 19 | 1.6 | 1.6 | 0.00 | 0.00 | 0.00 | 17 | 1008.7 |
| 20260501232130 | 30 | 293 | 4.8 | 4.8 | 0.00 | 0.00 | 0.00 | 17 | 1008.6 |
| 20260501231627 | 30 | 5 | 4.8 | 8.0 | 0.00 | 0.00 | 0.00 | 17 | 1008.7 |
| 20260501231126 | 30 | 291 | 3.2 | 4.8 | 0.00 | 0.00 | 0.00 | 17 | 1008.9 |
| 20260501230624 | 30 | 1 | 3.2 | 3.2 | 0.00 | 0.00 | 0.00 | 17 | 1008.7 |
| 20260501230122 | 30 | 320 | 3.2 | 3.2 | 0.00 | 0.00 | 0.00 | 17 | 1008.6 |
| 20260501225619 | 30 | 261 | 1.6 | 1.6 | 0.00 | 0.00 | 0.00 | 18 | 1008.7 |
| 20260501225115 | 30 | 317 | 4.8 | 4.8 | 0.00 | 0.00 | 0.00 | 18 | 1009.0 |
| 20260501224612 | 30 | 312 | 11.3 | 12.9 | 0.00 | 0.00 | 0.00 | 17 | 1009.0 |
| 20260501224109 | 30 | 358 | 4.8 | 8.0 | 0.00 | 0.00 | 0.00 | 17 | 1009.0 |
| 20260501223606 | 30 | 17 | 3.2 | 3.2 | 0.00 | 0.00 | 0.00 | 18 | 1008.9 |
| 20260501223102 | 30 | 296 | 4.8 | 9.7 | 0.00 | 0.00 | 0.00 | 19 | 1009.1 |
| 20260501222558 | 29 | 259 | 4.8 | 4.8 | 0.00 | 0.00 | 0.00 | 17 | 1009.1 |
| 20260501222055 | 30 | 245 | 8.0 | 8.0 | 0.00 | 0.00 | 0.00 | 18 | 1009.1 |
| 20260501221552 | 30 | 298 | 4.8 | 9.7 | 0.00 | 0.00 | 0.00 | 18 | 1009.3 |
| 20260501221049 | 30 | 299 | 3.2 | 3.2 | 0.00 | 0.00 | 0.00 | 18 | 1009.6 |
| 20260501220547 | 30 | 300 | 6.4 | 8.0 | 0.00 | 0.00 | 0.00 | 18 | 1009.3 |
| 20260501220044 | 29 | 310 | 1.6 | 1.6 | 0.00 | 0.00 | 0.00 | 18 | 1009.5 |
| 20260501215540 | 30 | 308 | 6.4 | 9.7 | 0.00 | 0.00 | 0.00 | 18 | 1009.6 |
| 20260501215035 | 30 | 303 | 4.8 | 8.0 | 0.00 | 0.00 | 0.00 | 18 | 1009.7 |
| 20260501214531 | 30 | 284 | 4.8 | 4.8 | 0.00 | 0.00 | 0.00 | 18 | 1009.6 |
| 20260501214027 | 30 | 298 | 4.8 | 4.8 | 0.00 | 0.00 | 0.00 | 18 | 1009.7 |
| 20260501213524 | 29 | 27 | 3.2 | 4.8 | 0.00 | 0.00 | 0.00 | 19 | 1009.7 |
| 20260501213020 | 28 | 276 | 1.6 | 1.6 | 0.00 | 0.00 | 0.00 | 19 | 1010.0 |
| 20260501212516 | 29 | 264 | 11.3 | 12.9 | 0.00 | 0.00 | 0.00 | 19 | 1010.0 |
| 20260501212014 | 29 | 282 | 3.2 | 3.2 | 0.00 | 0.00 | 0.00 | 19 | 1009.9 |
| 20260501211510 | 28 | 1 | 0.0 | 1.6 | 0.00 | 0.00 | 0.00 | 19 | 1010.2 |
| 20260501211009 | 28 | 309 | 4.8 | 3.2 | 0.00 | 0.00 | 0.00 | 19 | 1010.3 |
| 20260501210504 | 28 | 300 | 3.2 | 3.2 | 0.00 | 0.00 | 0.00 | 20 | 1010.3 |
| 20260501210001 | 29 | 330 | 3.2 | 3.2 | 0.00 | 0.00 | 0.00 | 20 | 1010.1 |
| 20260501205458 | 28 | 286 | 4.8 | 4.8 | 0.00 | 0.00 | 0.00 | 19 | 1010.5 |
| 20260501204955 | 28 | 264 | 1.6 | 3.2 | 0.00 | 0.00 | 0.00 | 19 | 1010.4 |
| 20260501204451 | 28 | 304 | 3.2 | 3.2 | 0.00 | 0.00 | 0.00 | 20 | 1010.7 |
| 20260501203947 | 28 | 299 | 6.4 | 9.7 | 0.00 | 0.00 | 0.00 | 19 | 1010.6 |
| 20260501203444 | 28 | 199 | 4.8 | 4.8 | 0.00 | 0.00 | 0.00 | 19 | 1010.6 |
| 20260501202942 | 28 | 301 | 4.8 | 4.8 | 0.00 | 0.00 | 0.00 | 19 | 1010.5 |
| 20260501202438 | 28 | 330 | 1.6 | 1.6 | 0.00 | 0.00 | 0.00 | 20 | 1010.4 |
| 20260501201935 | 28 | 311 | 9.7 | 11.3 | 0.00 | 0.00 | 0.00 | 19 | 1010.9 |
| 20260501201432 | 28 | 300 | 1.6 | 1.6 | 0.00 | 0.00 | 0.00 | 20 | 1011.0 |
| 20260501200929 | 27 | 275 | 4.8 | 4.8 | 0.00 | 0.00 | 0.00 | 20 | 1010.9 |
| 20260501200426 | 27 | 210 | 4.8 | 4.8 | 0.00 | 0.00 | 0.00 | 20 | 1010.9 |
| 20260501195924 | 27 | 235 | 6.4 | 8.0 | 0.00 | 0.00 | 0.00 | 20 | 1010.9 |